Time,TemperatureF,DewpointF,PressureIn,WindDirection,WindDirectionDegrees,WindSpeedMPH,WindSpeedGustMPH,Humidity,HourlyPrecipIn,Conditions,Clouds,dailyrainin,SolarRadiationWatts/m^2,SoftwareType,DateUTC
2013-01-13 00:05:00,22.8,9.4,30.10,NNW,348,18.0,20.0,56,0.00,,,0.00,0,Wunderground v.1.15,2013-01-13 06:05:00,
2013-01-13 00:10:00,22.6,9.6,30.09,North,7,18.0,21.0,57,0.00,,,0.00,0,Wunderground v.1.15,2013-01-13 06:10:00,
2013-01-13 00:17:00,22.4,9.8,30.10,NNW,341,17.0,21.0,58,0.00,,,0.00,0,Wunderground v.1.15,2013-01-13 06:17:00,
2013-01-13 00:22:00,22.2,9.7,30.09,North,357,18.0,20.0,58,0.00,,,0.00,0,Wunderground v.1.15,2013-01-13 06:22:00,
2013-01-13 00:29:00,22.0,9.5,30.09,North,357,15.0,16.0,58,0.00,,,0.00,0,Wunderground v.1.15,2013-01-13 06:29:00,
2013-01-13 00:34:00,21.9,9.7,30.10,NNW,347,15.0,16.0,59,0.00,,,0.00,0,Wunderground v.1.15,2013-01-13 06:34:00,
2013-01-13 00:41:00,21.8,9.7,30.10,NNW,345,15.0,17.0,59,0.00,,,0.00,0,Wunderground v.1.15,2013-01-13 06:41:00,
2013-01-13 00:46:00,21.7,9.9,30.09,North,352,14.0,17.0,60,0.00,,,0.00,0,Wunderground v.1.15,2013-01-13 06:46:00,
2013-01-13 00:53:00,21.5,10.1,30.08,North,357,13.0,16.0,61,0.00,,,0.00,0,Wunderground v.1.15,2013-01-13 06:53:00,
2013-01-13 00:58:00,21.3,10.3,30.09,North,357,13.0,16.0,62,0.00,,,0.00,0,Wunderground v.1.15,2013-01-13 06:58:00,
2013-01-13 01:04:00,21.1,10.1,30.09,North,2,13.0,16.0,62,0.00,,,0.00,0,Wunderground v.1.15,2013-01-13 07:04:00,
2013-01-13 01:10:00,21.1,10.1,30.08,North,2,15.0,21.0,62,0.00,,,0.00,0,Wunderground v.1.15,2013-01-13 07:10:00,
2013-01-13 01:16:00,21.1,10.1,30.09,NNE,25,17.0,21.0,62,0.00,,,0.00,0,Wunderground v.1.15,2013-01-13 07:16:00,
2013-01-13 01:22:00,21.1,10.1,30.09,North,357,16.0,17.0,62,0.00,,,0.00,0,Wunderground v.1.15,2013-01-13 07:22:00,
2013-01-13 01:28:00,21.0,10.4,30.10,North,2,14.0,14.0,63,0.00,,,0.00,0,Wunderground v.1.15,2013-01-13 07:28:00,
2013-01-13 01:34:00,21.0,10.4,30.10,North,357,12.0,18.0,63,0.00,,,0.00,0,Wunderground v.1.15,2013-01-13 07:34:00,
2013-01-13 01:40:00,21.0,10.4,30.11,NNW,347,14.0,17.0,63,0.00,,,0.00,0,Wunderground v.1.15,2013-01-13 07:40:00,
2013-01-13 01:46:00,20.9,10.3,30.11,North,352,16.0,24.0,63,0.00,,,0.00,0,Wunderground v.1.15,2013-01-13 07:46:00,
2013-01-13 01:53:00,20.9,10.3,30.11,North,352,16.0,16.0,63,0.00,,,0.00,0,Wunderground v.1.15,2013-01-13 07:53:00,
2013-01-13 01:58:00,20.8,9.8,30.13,NNW,333,16.0,16.0,62,0.00,,,0.00,0,Wunderground v.1.15,2013-01-13 07:58:00,
2013-01-13 02:05:00,20.7,10.1,30.13,North,6,14.0,19.0,63,0.00,,,0.00,0,Wunderground v.1.15,2013-01-13 08:05:00,
2013-01-13 02:10:00,20.7,10.1,30.14,North,357,14.0,19.0,63,0.00,,,0.00,0,Wunderground v.1.15,2013-01-13 08:10:00,
2013-01-13 02:17:00,20.6,10.0,30.14,NNW,339,13.0,19.0,63,0.00,,,0.00,0,Wunderground v.1.15,2013-01-13 08:17:00,
2013-01-13 02:22:00,20.5,9.9,30.14,NNW,336,15.0,19.0,63,0.00,,,0.00,0,Wunderground v.1.15,2013-01-13 08:22:00,
2013-01-13 02:28:00,20.4,10.1,30.14,NNW,332,16.0,16.0,64,0.00,,,0.00,0,Wunderground v.1.15,2013-01-13 08:28:00,
2013-01-13 02:35:00,20.4,10.1,30.14,North,2,15.0,19.0,64,0.00,,,0.00,0,Wunderground v.1.15,2013-01-13 08:35:00,
2013-01-13 02:40:00,20.3,10.1,30.14,NNW,343,16.0,23.0,64,0.00,,,0.00,0,Wunderground v.1.15,2013-01-13 08:40:00,
2013-01-13 02:47:00,20.2,10.0,30.15,North,352,17.0,23.0,64,0.00,,,0.00,0,Wunderground v.1.15,2013-01-13 08:47:00,
2013-01-13 02:52:00,20.1,10.2,30.14,NNW,339,15.0,19.0,65,0.00,,,0.00,0,Wunderground v.1.15,2013-01-13 08:52:00,
2013-01-13 02:59:00,20.0,10.1,30.15,NNW,331,15.0,15.0,65,0.00,,,0.00,0,Wunderground v.1.15,2013-01-13 08:59:00,
2013-01-13 03:04:00,19.8,9.9,30.15,NNW,341,15.0,19.0,65,0.00,,,0.00,0,Wunderground v.1.15,2013-01-13 09:04:00,
2013-01-13 03:11:00,19.7,9.8,30.15,NNW,334,15.0,16.0,65,0.00,,,0.00,0,Wunderground v.1.15,2013-01-13 09:11:00,
2013-01-13 03:16:00,19.6,9.7,30.15,NNW,345,14.0,19.0,65,0.00,,,0.00,0,Wunderground v.1.15,2013-01-13 09:16:00,
2013-01-13 03:22:00,19.4,9.2,30.15,NNW,343,14.0,21.0,64,0.00,,,0.00,0,Wunderground v.1.15,2013-01-13 09:22:00,
2013-01-13 03:28:00,19.3,9.1,30.15,NNW,344,16.0,16.0,64,0.00,,,0.00,0,Wunderground v.1.15,2013-01-13 09:28:00,
2013-01-13 03:34:00,19.1,8.6,30.15,NW,324,14.0,19.0,63,0.00,,,0.00,0,Wunderground v.1.15,2013-01-13 09:34:00,
2013-01-13 03:41:00,19.0,8.5,30.15,NNW,343,13.0,19.0,63,0.00,,,0.00,0,Wunderground v.1.15,2013-01-13 09:41:00,
2013-01-13 03:46:00,18.8,8.3,30.15,North,352,14.0,19.0,63,0.00,,,0.00,0,Wunderground v.1.15,2013-01-13 09:46:00,
2013-01-13 03:53:00,18.7,8.2,30.15,NNW,348,15.0,19.0,63,0.00,,,0.00,0,Wunderground v.1.15,2013-01-13 09:53:00,
2013-01-13 03:58:00,18.6,8.1,30.15,NNW,339,16.0,16.0,63,0.00,,,0.00,0,Wunderground v.1.15,2013-01-13 09:58:00,
2013-01-13 04:04:00,18.4,7.2,30.15,NW,326,17.0,24.0,61,0.00,,,0.00,0,Wunderground v.1.15,2013-01-13 10:04:00,
2013-01-13 04:11:00,18.2,7.0,30.15,NNW,333,17.0,21.0,61,0.00,,,0.00,0,Wunderground v.1.15,2013-01-13 10:11:00,
2013-01-13 04:16:00,18.2,7.3,30.15,NNW,337,15.0,21.0,62,0.00,,,0.00,0,Wunderground v.1.15,2013-01-13 10:16:00,
2013-01-13 04:22:00,18.2,7.0,30.14,NNW,343,13.0,19.0,61,0.00,,,0.00,0,Wunderground v.1.15,2013-01-13 10:22:00,
2013-01-13 04:29:00,18.2,7.3,30.15,NW,321,14.0,14.0,62,0.00,,,0.00,0,Wunderground v.1.15,2013-01-13 10:29:00,
2013-01-13 04:34:00,18.2,7.0,30.15,North,352,16.0,21.0,61,0.00,,,0.00,0,Wunderground v.1.15,2013-01-13 10:34:00,
2013-01-13 04:41:00,18.1,6.9,30.15,NNW,336,17.0,19.0,61,0.00,,,0.00,0,Wunderground v.1.15,2013-01-13 10:41:00,
2013-01-13 04:46:00,18.0,6.8,30.15,NNW,343,16.0,19.0,61,0.00,,,0.00,0,Wunderground v.1.15,2013-01-13 10:46:00,
2013-01-13 04:53:00,17.9,6.7,30.15,NNW,341,18.0,20.0,61,0.00,,,0.00,0,Wunderground v.1.15,2013-01-13 10:53:00,
2013-01-13 04:58:00,17.8,6.6,30.15,NNW,348,17.0,17.0,61,0.00,,,0.00,0,Wunderground v.1.15,2013-01-13 10:58:00,
2013-01-13 05:04:00,17.6,6.8,30.16,NNW,339,16.0,19.0,62,0.00,,,0.00,0,Wunderground v.1.15,2013-01-13 11:04:00,
2013-01-13 05:11:00,17.4,6.6,30.16,NNW,338,17.0,20.0,62,0.00,,,0.00,0,Wunderground v.1.15,2013-01-13 11:11:00,
2013-01-13 05:16:00,17.3,6.8,30.16,North,352,17.0,20.0,63,0.00,,,0.00,0,Wunderground v.1.15,2013-01-13 11:16:00,
2013-01-13 05:23:00,17.1,7.0,30.16,North,352,15.0,19.0,64,0.00,,,0.00,0,Wunderground v.1.15,2013-01-13 11:23:00,
2013-01-13 05:28:00,17.0,7.3,30.16,NNW,336,12.0,12.0,65,0.00,,,0.00,0,Wunderground v.1.15,2013-01-13 11:28:00,
2013-01-13 05:34:00,16.8,7.1,30.17,NNW,340,11.0,17.0,65,0.00,,,0.00,0,Wunderground v.1.15,2013-01-13 11:34:00,
2013-01-13 05:41:00,16.7,7.0,30.17,NNW,339,14.0,15.0,65,0.00,,,0.00,0,Wunderground v.1.15,2013-01-13 11:41:00,
2013-01-13 05:46:00,16.6,7.2,30.17,NNW,342,12.0,19.0,66,0.00,,,0.00,0,Wunderground v.1.15,2013-01-13 11:46:00,
2013-01-13 05:53:00,16.6,7.2,30.17,NNW,343,9.0,19.0,66,0.00,,,0.00,0,Wunderground v.1.15,2013-01-13 11:53:00,
2013-01-13 05:58:00,16.4,7.3,30.17,North,352,9.0,9.0,67,0.00,,,0.00,0,Wunderground v.1.15,2013-01-13 11:58:00,
2013-01-13 06:05:00,16.2,7.2,30.18,NNW,348,11.0,19.0,67,0.00,,,0.00,0,Wunderground v.1.15,2013-01-13 12:05:00,
2013-01-13 06:10:00,16.1,7.1,30.19,NNW,339,13.0,19.0,67,0.00,,,0.00,0,Wunderground v.1.15,2013-01-13 12:10:00,
2013-01-13 06:16:00,16.0,7.0,30.19,NNW,347,12.0,19.0,67,0.00,,,0.00,0,Wunderground v.1.15,2013-01-13 12:16:00,
2013-01-13 06:22:00,15.9,6.9,30.20,NNW,337,12.0,19.0,67,0.00,,,0.00,0,Wunderground v.1.15,2013-01-13 12:22:00,
2013-01-13 06:28:00,15.8,7.1,30.20,NNW,342,10.0,10.0,68,0.00,,,0.00,0,Wunderground v.1.15,2013-01-13 12:28:00,
2013-01-13 06:35:00,15.5,6.8,30.20,North,352,12.0,19.0,68,0.00,,,0.00,0,Wunderground v.1.15,2013-01-13 12:35:00,
2013-01-13 06:40:00,15.4,6.7,30.20,NW,325,13.0,19.0,68,0.00,,,0.00,0,Wunderground v.1.15,2013-01-13 12:40:00,
2013-01-13 06:46:00,15.2,6.5,30.21,NNW,335,11.0,19.0,68,0.00,,,0.00,0,Wunderground v.1.15,2013-01-13 12:46:00,
2013-01-13 06:55:00,15.0,6.7,30.21,NNW,340,11.0,19.0,69,0.00,,,0.00,0,Wunderground v.1.15,2013-01-13 12:55:00,
2013-01-13 07:00:00,15.0,6.7,30.21,NNW,348,12.0,19.0,69,0.00,,,0.00,0,Wunderground v.1.15,2013-01-13 13:00:00,
2013-01-13 07:07:00,14.9,6.6,30.22,NW,308,12.0,19.0,69,0.00,,,0.00,0,Wunderground v.1.15,2013-01-13 13:07:00,
2013-01-13 07:12:00,14.9,6.6,30.22,North,352,13.0,19.0,69,0.00,,,0.00,0,Wunderground v.1.15,2013-01-13 13:12:00,
2013-01-13 07:18:00,14.8,6.5,30.22,NNW,341,12.0,12.0,69,0.00,,,0.00,0,Wunderground v.1.15,2013-01-13 13:18:00,
2013-01-13 07:25:00,14.7,6.4,30.23,NNW,340,12.0,19.0,69,0.00,,,0.00,0,Wunderground v.1.15,2013-01-13 13:25:00,
2013-01-13 07:30:00,14.7,6.7,30.23,NNW,329,11.0,19.0,70,0.00,,,0.00,0,Wunderground v.1.15,2013-01-13 13:30:00,
2013-01-13 07:37:00,14.6,6.6,30.23,NNW,339,10.0,19.0,70,0.00,,,0.00,0,Wunderground v.1.15,2013-01-13 13:37:00,
2013-01-13 07:42:00,14.5,6.5,30.23,NNW,344,10.0,19.0,70,0.00,,,0.00,0,Wunderground v.1.15,2013-01-13 13:42:00,
2013-01-13 07:49:00,14.5,6.5,30.24,NNW,343,11.0,19.0,70,0.00,,,0.00,7,Wunderground v.1.15,2013-01-13 13:49:00,
2013-01-13 07:54:00,14.5,6.5,30.24,NNW,339,11.0,19.0,70,0.00,,,0.00,9,Wunderground v.1.15,2013-01-13 13:54:00,
2013-01-13 08:01:00,14.5,6.5,30.24,NNW,337,11.0,19.0,70,0.00,,,0.00,11,Wunderground v.1.15,2013-01-13 14:01:00,
2013-01-13 08:07:00,14.5,6.5,30.25,North,352,11.0,19.0,70,0.00,,,0.00,16,Wunderground v.1.15,2013-01-13 14:07:00,
2013-01-13 08:12:00,14.5,6.5,30.25,NNW,345,10.0,19.0,70,0.00,,,0.00,19,Wunderground v.1.15,2013-01-13 14:12:00,
2013-01-13 08:18:00,14.6,6.6,30.25,NNW,330,10.0,19.0,70,0.00,,,0.00,25,Wunderground v.1.15,2013-01-13 14:18:00,
2013-01-13 08:24:00,14.7,6.7,30.26,NNW,342,10.0,19.0,70,0.00,,,0.00,30,Wunderground v.1.15,2013-01-13 14:24:00,
2013-01-13 08:30:00,14.9,6.9,30.26,NNW,341,11.0,16.0,70,0.00,,,0.00,42,Wunderground v.1.15,2013-01-13 14:30:00,
2013-01-13 08:37:00,15.1,6.8,30.26,NW,319,12.0,19.0,69,0.00,,,0.00,74,Wunderground v.1.15,2013-01-13 14:37:00,
2013-01-13 08:42:00,15.4,7.0,30.27,North,6,12.0,19.0,69,0.00,,,0.00,97,Wunderground v.1.15,2013-01-13 14:42:00,
2013-01-13 08:49:00,15.7,7.3,30.27,NNW,341,13.0,19.0,69,0.00,,,0.00,118,Wunderground v.1.15,2013-01-13 14:49:00,
2013-01-13 08:55:00,16.2,7.5,30.27,NW,310,12.0,19.0,68,0.00,,,0.00,149,Wunderground v.1.15,2013-01-13 14:55:00,
2013-01-13 09:00:00,16.4,7.0,30.28,NNW,346,11.0,19.0,66,0.00,,,0.00,167,Wunderground v.1.15,2013-01-13 15:00:00,
2013-01-13 09:07:00,16.5,7.1,30.28,NNW,341,12.0,19.0,66,0.00,,,0.00,188,Wunderground v.1.15,2013-01-13 15:07:00,
2013-01-13 09:12:00,16.7,7.3,30.28,NW,325,13.0,19.0,66,0.00,,,0.00,207,Wunderground v.1.15,2013-01-13 15:12:00,
2013-01-13 09:19:00,17.1,7.7,30.29,North,352,13.0,19.0,66,0.00,,,0.00,225,Wunderground v.1.15,2013-01-13 15:19:00,
2013-01-13 09:24:00,17.4,7.3,30.29,NNW,346,13.0,19.0,64,0.00,,,0.00,243,Wunderground v.1.15,2013-01-13 15:24:00,
2013-01-13 09:30:00,17.6,7.5,30.29,North,352,12.0,19.0,64,0.00,,,0.00,258,Wunderground v.1.15,2013-01-13 15:30:00,
2013-01-13 09:36:00,18.0,7.5,30.30,NW,322,12.0,19.0,63,0.00,,,0.00,251,Wunderground v.1.15,2013-01-13 15:36:00,
2013-01-13 09:42:00,18.2,7.7,30.30,NNW,329,12.0,19.0,63,0.00,,,0.00,218,Wunderground v.1.15,2013-01-13 15:42:00,
2013-01-13 09:49:00,18.3,7.4,30.30,NNW,348,11.0,11.0,62,0.00,,,0.00,221,Wunderground v.1.15,2013-01-13 15:49:00,
2013-01-13 09:54:00,18.7,7.8,30.30,NNW,327,12.0,19.0,62,0.00,,,0.00,229,Wunderground v.1.15,2013-01-13 15:54:00,
2013-01-13 10:01:00,18.9,7.7,30.30,NNW,344,11.0,19.0,61,0.00,,,0.00,329,Wunderground v.1.15,2013-01-13 16:01:00,
2013-01-13 10:06:00,19.3,8.0,30.30,NNW,327,11.0,19.0,61,0.00,,,0.00,343,Wunderground v.1.15,2013-01-13 16:06:00,
2013-01-13 10:13:00,19.2,7.6,30.30,NNW,335,10.0,19.0,60,0.00,,,0.00,357,Wunderground v.1.15,2013-01-13 16:13:00,
2013-01-13 10:18:00,19.2,7.2,30.30,NW,318,10.0,19.0,59,0.00,,,0.00,369,Wunderground v.1.15,2013-01-13 16:18:00,
2013-01-13 10:24:00,19.3,6.9,30.30,NW,308,11.0,19.0,58,0.00,,,0.00,381,Wunderground v.1.15,2013-01-13 16:24:00,
2013-01-13 10:31:00,20.1,8.1,30.30,NNW,348,11.0,19.0,59,0.00,,,0.00,394,Wunderground v.1.15,2013-01-13 16:31:00,
2013-01-13 10:36:00,20.2,7.4,30.31,NNW,333,11.0,19.0,57,0.00,,,0.00,406,Wunderground v.1.15,2013-01-13 16:36:00,
2013-01-13 10:45:00,20.7,7.5,30.32,NNW,343,10.0,19.0,56,0.00,,,0.00,420,Wunderground v.1.15,2013-01-13 16:45:00,
2013-01-13 10:50:00,21.0,8.1,30.31,NNW,336,11.0,19.0,57,0.00,,,0.00,431,Wunderground v.1.15,2013-01-13 16:50:00,
2013-01-13 10:56:00,21.3,7.2,30.31,WNW,291,10.0,19.0,54,0.00,,,0.00,441,Wunderground v.1.15,2013-01-13 16:56:00,
2013-01-13 11:02:00,21.5,7.4,30.31,NNW,345,10.0,19.0,54,0.00,,,0.00,454,Wunderground v.1.15,2013-01-13 17:02:00,
2013-01-13 11:09:00,21.9,7.4,30.30,WNW,299,10.0,10.0,53,0.00,,,0.00,475,Wunderground v.1.15,2013-01-13 17:09:00,
2013-01-13 11:14:00,22.2,8.1,30.30,NNW,339,9.0,19.0,54,0.00,,,0.00,547,Wunderground v.1.15,2013-01-13 17:14:00,
2013-01-13 11:20:00,22.8,7.8,30.30,NW,324,9.0,19.0,52,0.00,,,0.00,501,Wunderground v.1.15,2013-01-13 17:20:00,
2013-01-13 11:27:00,23.1,7.6,30.29,NNW,333,9.0,19.0,51,0.00,,,0.00,492,Wunderground v.1.15,2013-01-13 17:27:00,
2013-01-13 11:32:00,23.7,7.7,30.29,North,2,11.0,19.0,50,0.00,,,0.00,497,Wunderground v.1.15,2013-01-13 17:32:00,
2013-01-13 11:39:00,23.1,6.3,30.28,North,6,11.0,11.0,48,0.00,,,0.00,501,Wunderground v.1.15,2013-01-13 17:39:00,
2013-01-13 11:44:00,23.1,6.3,30.28,NNW,328,10.0,19.0,48,0.00,,,0.00,508,Wunderground v.1.15,2013-01-13 17:44:00,
2013-01-13 11:50:00,23.7,6.8,30.28,NW,322,10.0,19.0,48,0.00,,,0.00,520,Wunderground v.1.15,2013-01-13 17:50:00,
2013-01-13 11:57:00,23.7,6.4,30.27,NNW,330,9.0,19.0,47,0.00,,,0.00,308,Wunderground v.1.15,2013-01-13 17:57:00,
2013-01-13 12:02:00,24.1,8.1,30.27,North,352,9.0,19.0,50,0.00,,,0.00,510,Wunderground v.1.15,2013-01-13 18:02:00,
2013-01-13 12:09:00,24.6,6.7,30.27,NNW,342,10.0,19.0,46,0.00,,,0.00,554,Wunderground v.1.15,2013-01-13 18:09:00,
2013-01-13 12:14:00,24.7,6.3,30.27,North,357,12.0,19.0,45,0.00,,,0.00,371,Wunderground v.1.15,2013-01-13 18:14:00,
2013-01-13 12:20:00,24.9,6.5,30.25,NNW,344,11.0,19.0,45,0.00,,,0.00,531,Wunderground v.1.15,2013-01-13 18:20:00,
2013-01-13 12:26:00,25.0,5.6,30.25,NNW,333,11.0,19.0,43,0.00,,,0.00,536,Wunderground v.1.15,2013-01-13 18:26:00,
2013-01-13 12:32:00,24.9,5.5,30.25,NNW,343,12.0,19.0,43,0.00,,,0.00,538,Wunderground v.1.15,2013-01-13 18:32:00,
2013-01-13 12:39:00,25.3,6.9,30.25,NW,322,10.0,10.0,45,0.00,,,0.00,536,Wunderground v.1.15,2013-01-13 18:39:00,
2013-01-13 12:44:00,25.5,6.6,30.25,North,352,9.0,19.0,44,0.00,,,0.00,538,Wunderground v.1.15,2013-01-13 18:44:00,
2013-01-13 12:51:00,25.8,6.3,30.25,North,352,10.0,19.0,43,0.00,,,0.00,536,Wunderground v.1.15,2013-01-13 18:51:00,
2013-01-13 12:56:00,26.0,6.0,30.24,NNW,343,10.0,19.0,42,0.00,,,0.00,538,Wunderground v.1.15,2013-01-13 18:56:00,
2013-01-13 13:02:00,26.5,7.0,30.24,North,357,10.0,19.0,43,0.00,,,0.00,538,Wunderground v.1.15,2013-01-13 19:02:00,
2013-01-13 13:08:00,26.9,6.3,30.24,NNW,334,8.0,19.0,41,0.00,,,0.00,534,Wunderground v.1.15,2013-01-13 19:08:00,
2013-01-13 13:14:00,27.1,6.5,30.24,NW,324,9.0,19.0,41,0.00,,,0.00,533,Wunderground v.1.15,2013-01-13 19:14:00,
2013-01-13 13:20:00,26.9,6.8,30.23,North,357,11.0,11.0,42,0.00,,,0.00,531,Wunderground v.1.15,2013-01-13 19:20:00,
2013-01-13 13:27:00,27.3,6.1,30.23,NNW,327,11.0,19.0,40,0.00,,,0.00,524,Wunderground v.1.15,2013-01-13 19:27:00,
2013-01-13 13:32:00,27.5,7.4,30.23,NW,322,11.0,19.0,42,0.00,,,0.00,519,Wunderground v.1.15,2013-01-13 19:32:00,
2013-01-13 13:38:00,27.6,6.9,30.23,NNW,335,11.0,19.0,41,0.00,,,0.00,515,Wunderground v.1.15,2013-01-13 19:38:00,
2013-01-13 13:45:00,28.1,7.4,30.23,NW,319,9.0,19.0,41,0.00,,,0.00,512,Wunderground v.1.15,2013-01-13 19:45:00,
2013-01-13 13:50:00,28.2,6.9,30.23,North,352,8.0,19.0,40,0.00,,,0.00,504,Wunderground v.1.15,2013-01-13 19:50:00,
2013-01-13 13:57:00,28.4,6.0,30.23,North,357,9.0,19.0,38,0.00,,,0.00,497,Wunderground v.1.15,2013-01-13 19:57:00,
2013-01-13 14:02:00,28.4,7.7,30.23,North,352,8.0,19.0,41,0.00,,,0.00,492,Wunderground v.1.15,2013-01-13 20:02:00,
2013-01-13 14:08:00,28.7,6.8,30.23,NW,320,8.0,19.0,39,0.00,,,0.00,473,Wunderground v.1.15,2013-01-13 20:08:00,
2013-01-13 14:14:00,28.5,6.1,30.24,NW,306,9.0,19.0,38,0.00,,,0.00,40,Wunderground v.1.15,2013-01-13 20:14:00,
2013-01-13 14:21:00,28.5,6.1,30.24,NW,308,8.0,19.0,38,0.00,,,0.00,39,Wunderground v.1.15,2013-01-13 20:21:00,
2013-01-13 14:26:00,28.6,6.7,30.24,NNW,343,7.0,19.0,39,0.00,,,0.00,39,Wunderground v.1.15,2013-01-13 20:26:00,
2013-01-13 14:32:00,28.8,6.9,30.24,North,357,7.0,19.0,39,0.00,,,0.00,42,Wunderground v.1.15,2013-01-13 20:32:00,
2013-01-13 14:38:00,28.8,7.5,30.25,North,6,9.0,9.0,40,0.00,,,0.00,37,Wunderground v.1.15,2013-01-13 20:38:00,
2013-01-13 14:45:00,28.7,6.3,30.25,NNW,330,7.0,19.0,38,0.00,,,0.00,40,Wunderground v.1.15,2013-01-13 20:45:00,
2013-01-13 14:50:00,28.7,6.3,30.25,NNW,328,6.0,19.0,38,0.00,,,0.00,40,Wunderground v.1.15,2013-01-13 20:50:00,
2013-01-13 14:56:00,28.7,6.3,30.24,NNW,333,7.0,19.0,38,0.00,,,0.00,37,Wunderground v.1.15,2013-01-13 20:56:00,
2013-01-13 15:03:00,28.9,6.4,30.25,NNW,347,7.0,19.0,38,0.00,,,0.00,35,Wunderground v.1.15,2013-01-13 21:03:00,
2013-01-13 15:08:00,28.8,5.8,30.25,NNW,331,9.0,9.0,37,0.00,,,0.00,58,Wunderground v.1.15,2013-01-13 21:08:00,
2013-01-13 15:14:00,28.6,5.6,30.25,NNW,336,8.0,19.0,37,0.00,,,0.00,102,Wunderground v.1.15,2013-01-13 21:14:00,
2013-01-13 15:21:00,28.7,6.8,30.25,NNW,348,9.0,19.0,39,0.00,,,0.00,35,Wunderground v.1.15,2013-01-13 21:21:00,
2013-01-13 15:26:00,28.9,5.8,30.24,NW,304,11.0,19.0,37,0.00,,,0.00,40,Wunderground v.1.15,2013-01-13 21:26:00,
2013-01-13 15:32:00,28.7,5.7,30.24,NNW,345,10.0,13.0,37,0.00,,,0.00,56,Wunderground v.1.15,2013-01-13 21:32:00,
2013-01-13 15:39:00,28.7,5.1,30.24,NW,324,10.0,10.0,36,0.00,,,0.00,58,Wunderground v.1.15,2013-01-13 21:39:00,
2013-01-13 15:44:00,28.7,6.3,30.24,NNW,343,10.0,19.0,38,0.00,,,0.00,33,Wunderground v.1.15,2013-01-13 21:44:00,
2013-01-13 15:50:00,29.0,7.7,30.24,NNW,339,11.0,19.0,40,0.00,,,0.00,32,Wunderground v.1.15,2013-01-13 21:50:00,
2013-01-13 15:56:00,29.1,6.0,30.24,NNW,328,10.0,19.0,37,0.00,,,0.00,32,Wunderground v.1.15,2013-01-13 21:56:00,
2013-01-13 16:02:00,29.2,7.3,30.24,North,352,10.0,19.0,39,0.00,,,0.00,248,Wunderground v.1.15,2013-01-13 22:02:00,
2013-01-13 16:08:00,29.2,7.3,30.25,NNE,17,11.0,19.0,39,0.00,,,0.00,230,Wunderground v.1.15,2013-01-13 22:08:00,
2013-01-13 16:15:00,29.3,6.2,30.25,NNW,338,11.0,19.0,37,0.00,,,0.00,30,Wunderground v.1.15,2013-01-13 22:15:00,
2013-01-13 16:20:00,29.2,6.1,30.25,NNW,330,10.0,19.0,37,0.00,,,0.00,28,Wunderground v.1.15,2013-01-13 22:20:00,
2013-01-13 16:27:00,29.1,7.2,30.25,North,357,9.0,19.0,39,0.00,,,0.00,28,Wunderground v.1.15,2013-01-13 22:27:00,
2013-01-13 16:32:00,29.1,7.2,30.25,North,357,8.0,19.0,39,0.00,,,0.00,26,Wunderground v.1.15,2013-01-13 22:32:00,
2013-01-13 16:39:00,29.0,7.1,30.26,NW,319,9.0,9.0,39,0.00,,,0.00,25,Wunderground v.1.15,2013-01-13 22:39:00,
2013-01-13 16:44:00,28.8,6.9,30.26,NW,322,9.0,19.0,39,0.00,,,0.00,23,Wunderground v.1.15,2013-01-13 22:44:00,
2013-01-13 16:50:00,28.7,7.4,30.25,NNW,332,9.0,19.0,40,0.00,,,0.00,21,Wunderground v.1.15,2013-01-13 22:50:00,
2013-01-13 16:57:00,28.5,7.2,30.25,NNW,341,11.0,19.0,40,0.00,,,0.00,19,Wunderground v.1.15,2013-01-13 22:57:00,
2013-01-13 17:02:00,28.3,7.6,30.25,NW,324,11.0,19.0,41,0.00,,,0.00,18,Wunderground v.1.15,2013-01-13 23:02:00,
2013-01-13 17:09:00,28.3,8.1,30.25,North,352,10.0,10.0,42,0.00,,,0.00,16,Wunderground v.1.15,2013-01-13 23:09:00,
2013-01-13 17:14:00,28.1,8.4,30.26,NNW,347,8.0,19.0,43,0.00,,,0.00,12,Wunderground v.1.15,2013-01-13 23:14:00,
2013-01-13 17:20:00,27.8,7.6,30.26,NNW,331,8.0,19.0,42,0.00,,,0.00,11,Wunderground v.1.15,2013-01-13 23:20:00,
2013-01-13 17:27:00,27.8,8.2,30.26,NNW,341,8.0,19.0,43,0.00,,,0.00,9,Wunderground v.1.15,2013-01-13 23:27:00,
2013-01-13 17:32:00,27.6,9.0,30.26,North,352,6.0,19.0,45,0.00,,,0.00,5,Wunderground v.1.15,2013-01-13 23:32:00,
2013-01-13 17:39:00,27.3,8.7,30.27,North,352,5.0,19.0,45,0.00,,,0.00,0,Wunderground v.1.15,2013-01-13 23:39:00,
2013-01-13 17:44:00,26.9,8.4,30.27,North,352,5.0,19.0,45,0.00,,,0.00,0,Wunderground v.1.15,2013-01-13 23:44:00,
2013-01-13 17:50:00,26.4,8.4,30.27,North,352,3.0,19.0,46,0.00,,,0.00,0,Wunderground v.1.15,2013-01-13 23:50:00,
2013-01-13 17:56:00,26.0,8.0,30.27,North,352,2.0,19.0,46,0.00,,,0.00,0,Wunderground v.1.15,2013-01-13 23:56:00,
2013-01-13 18:02:00,25.9,8.4,30.27,North,352,3.0,19.0,47,0.00,,,0.00,0,Wunderground v.1.15,2013-01-14 00:02:00,
2013-01-13 18:08:00,25.7,8.7,30.28,North,352,4.0,4.0,48,0.00,,,0.00,0,Wunderground v.1.15,2013-01-14 00:08:00,
2013-01-13 18:15:00,25.6,8.6,30.28,North,352,4.0,19.0,48,0.00,,,0.00,0,Wunderground v.1.15,2013-01-14 00:15:00,
2013-01-13 18:20:00,25.5,8.5,30.28,North,352,4.0,19.0,48,0.00,,,0.00,0,Wunderground v.1.15,2013-01-14 00:20:00,
2013-01-13 18:27:00,25.4,8.9,30.28,NNW,347,4.0,19.0,49,0.00,,,0.00,0,Wunderground v.1.15,2013-01-14 00:27:00,
2013-01-13 18:32:00,25.3,8.8,30.28,NNW,347,4.0,19.0,49,0.00,,,0.00,0,Wunderground v.1.15,2013-01-14 00:32:00,
2013-01-13 18:39:00,25.1,9.5,30.27,NNW,347,4.0,19.0,51,0.00,,,0.00,0,Wunderground v.1.15,2013-01-14 00:39:00,
2013-01-13 18:44:00,24.8,9.2,30.28,NNW,347,4.0,19.0,51,0.00,,,0.00,0,Wunderground v.1.15,2013-01-14 00:44:00,
2013-01-13 18:51:00,24.5,9.4,30.27,NNW,347,4.0,19.0,52,0.00,,,0.00,0,Wunderground v.1.15,2013-01-14 00:51:00,
2013-01-13 18:56:00,24.3,9.2,30.27,NNW,347,4.0,19.0,52,0.00,,,0.00,0,Wunderground v.1.15,2013-01-14 00:56:00,
2013-01-13 19:02:00,24.1,9.8,30.27,NNW,347,4.0,19.0,54,0.00,,,0.00,0,Wunderground v.1.15,2013-01-14 01:02:00,
2013-01-13 19:08:00,23.8,9.6,30.27,NNW,347,4.0,19.0,54,0.00,,,0.00,0,Wunderground v.1.15,2013-01-14 01:08:00,
2013-01-13 19:14:00,23.4,9.2,30.28,NNW,347,3.0,19.0,54,0.00,,,0.00,0,Wunderground v.1.15,2013-01-14 01:14:00,
2013-01-13 19:21:00,22.9,9.1,30.28,NNW,347,3.0,19.0,55,0.00,,,0.00,0,Wunderground v.1.15,2013-01-14 01:21:00,
2013-01-13 19:26:00,22.6,8.8,30.28,NNW,347,2.0,19.0,55,0.00,,,0.00,0,Wunderground v.1.15,2013-01-14 01:26:00,
2013-01-13 19:32:00,22.3,8.6,30.29,NNW,347,1.0,19.0,55,0.00,,,0.00,0,Wunderground v.1.15,2013-01-14 01:32:00,
2013-01-13 19:38:00,22.0,8.7,30.29,NNW,347,1.0,19.0,56,0.00,,,0.00,0,Wunderground v.1.15,2013-01-14 01:38:00,
2013-01-13 19:44:00,21.7,9.2,30.29,NNW,347,2.0,19.0,58,0.00,,,0.00,0,Wunderground v.1.15,2013-01-14 01:44:00,
2013-01-13 19:50:00,21.5,9.0,30.29,NNW,347,3.0,19.0,58,0.00,,,0.00,0,Wunderground v.1.15,2013-01-14 01:50:00,
2013-01-13 19:56:00,21.5,9.4,30.29,NNW,347,2.0,19.0,59,0.00,,,0.00,0,Wunderground v.1.15,2013-01-14 01:56:00,
2013-01-13 20:03:00,21.4,9.3,30.30,NNW,347,2.0,19.0,59,0.00,,,0.00,0,Wunderground v.1.15,2013-01-14 02:03:00,
2013-01-13 20:09:00,21.3,9.2,30.30,NNW,347,1.0,19.0,59,0.00,,,0.00,0,Wunderground v.1.15,2013-01-14 02:09:00,
2013-01-13 20:14:00,21.1,9.0,30.30,NNW,347,2.0,19.0,59,0.00,,,0.00,0,Wunderground v.1.15,2013-01-14 02:14:00,
2013-01-13 20:21:00,21.0,8.9,30.30,NNW,347,2.0,19.0,59,0.00,,,0.00,0,Wunderground v.1.15,2013-01-14 02:21:00,
2013-01-13 20:26:00,20.8,9.5,30.30,NNW,347,2.0,19.0,61,0.00,,,0.00,0,Wunderground v.1.15,2013-01-14 02:26:00,
2013-01-13 20:33:00,20.6,10.0,30.30,NNW,347,3.0,19.0,63,0.00,,,0.00,0,Wunderground v.1.15,2013-01-14 02:33:00,
2013-01-13 20:38:00,20.4,9.8,30.30,NNW,347,3.0,19.0,63,0.00,,,0.00,0,Wunderground v.1.15,2013-01-14 02:38:00,
2013-01-13 20:44:00,20.5,9.5,30.30,NNW,347,3.0,19.0,62,0.00,,,0.00,0,Wunderground v.1.15,2013-01-14 02:44:00,
2013-01-13 20:51:00,20.6,9.6,30.30,NNW,347,3.0,19.0,62,0.00,,,0.00,0,Wunderground v.1.15,2013-01-14 02:51:00,
2013-01-13 20:56:00,20.8,9.8,30.30,NNW,347,3.0,19.0,62,0.00,,,0.00,0,Wunderground v.1.15,2013-01-14 02:56:00,
2013-01-13 21:02:00,20.9,9.5,30.30,NNW,347,3.0,19.0,61,0.00,,,0.00,0,Wunderground v.1.15,2013-01-14 03:02:00,
2013-01-13 21:09:00,20.9,9.5,30.30,NNW,347,3.0,19.0,61,0.00,,,0.00,0,Wunderground v.1.15,2013-01-14 03:09:00,
2013-01-13 21:14:00,20.8,9.5,30.29,NNW,347,4.0,19.0,61,0.00,,,0.00,0,Wunderground v.1.15,2013-01-14 03:14:00,
2013-01-13 21:20:00,20.3,9.3,30.29,NNW,347,5.0,19.0,62,0.00,,,0.00,0,Wunderground v.1.15,2013-01-14 03:20:00,
2013-01-13 21:27:00,20.1,9.5,30.29,NNW,345,5.0,19.0,63,0.00,,,0.00,0,Wunderground v.1.15,2013-01-14 03:27:00,
2013-01-13 21:32:00,20.0,9.4,30.29,NNW,345,5.0,19.0,63,0.00,,,0.00,0,Wunderground v.1.15,2013-01-14 03:32:00,
2013-01-13 21:40:00,20.1,9.5,30.29,NNW,345,5.0,19.0,63,0.00,,,0.00,0,Wunderground v.1.15,2013-01-14 03:40:00,
2013-01-13 21:46:00,20.2,10.0,30.29,NNW,343,5.0,19.0,64,0.00,,,0.00,0,Wunderground v.1.15,2013-01-14 03:46:00,
2013-01-13 21:53:00,20.5,10.2,30.30,NNW,343,5.0,19.0,64,0.00,,,0.00,0,Wunderground v.1.15,2013-01-14 03:53:00,
2013-01-13 21:59:00,20.7,10.1,30.30,NNW,343,4.0,19.0,63,0.00,,,0.00,0,Wunderground v.1.15,2013-01-14 03:59:00,
2013-01-13 22:04:00,20.9,10.3,30.30,NNW,343,5.0,19.0,63,0.00,,,0.00,0,Wunderground v.1.15,2013-01-14 04:04:00,
2013-01-13 22:10:00,21.1,10.5,30.30,NNW,343,5.0,19.0,63,0.00,,,0.00,0,Wunderground v.1.15,2013-01-14 04:10:00,
2013-01-13 22:16:00,21.2,10.2,30.30,NNW,343,5.0,19.0,62,0.00,,,0.00,0,Wunderground v.1.15,2013-01-14 04:16:00,
2013-01-13 22:22:00,21.2,10.2,30.31,NNW,343,5.0,19.0,62,0.00,,,0.00,0,Wunderground v.1.15,2013-01-14 04:22:00,
2013-01-13 22:29:00,21.1,10.1,30.31,NNW,343,5.0,5.0,62,0.00,,,0.00,0,Wunderground v.1.15,2013-01-14 04:29:00,
2013-01-13 22:34:00,21.1,10.5,30.31,NNW,343,4.0,19.0,63,0.00,,,0.00,0,Wunderground v.1.15,2013-01-14 04:34:00,
2013-01-13 22:41:00,20.9,9.9,30.31,NNW,343,4.0,19.0,62,0.00,,,0.00,0,Wunderground v.1.15,2013-01-14 04:41:00,
2013-01-13 22:46:00,20.7,9.7,30.31,NNW,343,5.0,19.0,62,0.00,,,0.00,0,Wunderground v.1.15,2013-01-14 04:46:00,
2013-01-13 22:52:00,20.4,9.8,30.31,NNW,343,5.0,19.0,63,0.00,,,0.00,0,Wunderground v.1.15,2013-01-14 04:52:00,
2013-01-13 22:59:00,20.1,9.5,30.31,NNW,343,5.0,19.0,63,0.00,,,0.00,0,Wunderground v.1.15,2013-01-14 04:59:00,
2013-01-13 23:00:00,20.1,9.5,30.32,NNW,343,5.0,19.0,63,0.00,,,0.00,0,Wunderground v.1.15,2013-01-14 05:00:00,
2013-01-13 23:04:00,20.0,9.8,30.32,NNW,343,5.0,19.0,64,0.00,,,0.00,0,Wunderground v.1.15,2013-01-14 05:04:00,
2013-01-13 23:10:00,19.9,9.7,30.32,NNW,345,5.0,19.0,64,0.00,,,0.00,0,Wunderground v.1.15,2013-01-14 05:10:00,
2013-01-13 23:17:00,19.7,9.8,30.32,NNW,343,6.0,19.0,65,0.00,,,0.00,0,Wunderground v.1.15,2013-01-14 05:17:00,
2013-01-13 23:22:00,19.7,9.8,30.32,NNW,345,6.0,19.0,65,0.00,,,0.00,0,Wunderground v.1.15,2013-01-14 05:22:00,
2013-01-13 23:26:00,19.6,9.7,30.32,NNW,347,6.0,19.0,65,0.00,,,0.00,0,Wunderground v.1.15,2013-01-14 05:26:00,
2013-01-13 23:32:00,19.4,9.5,30.33,North,352,6.0,19.0,65,0.00,,,0.00,0,Wunderground v.1.15,2013-01-14 05:32:00,
2013-01-13 23:38:00,19.3,9.8,30.33,North,352,6.0,6.0,66,0.00,,,0.00,0,Wunderground v.1.15,2013-01-14 05:38:00,
2013-01-13 23:44:00,19.1,9.3,30.33,North,352,5.0,19.0,65,0.00,,,0.00,0,Wunderground v.1.15,2013-01-14 05:44:00,
2013-01-13 23:50:00,18.8,9.3,30.34,North,352,5.0,19.0,66,0.00,,,0.00,0,Wunderground v.1.15,2013-01-14 05:50:00,
2013-01-13 23:57:00,18.7,9.6,30.34,North,352,5.0,19.0,67,0.00,,,0.00,0,Wunderground v.1.15,2013-01-14 05:57:00,